Regional Weather Roundup
Issued by NWS

Home | Current Version | Previous Version | Text Only | Print | Product List | Glossary On
Versions: 1 2 3 4 5 6 7 8 9 10 11 12 13 14 15 16 17 18 19 20 21 22 23 24 25 26 27 28 29 30 31 32 33 34 35 36 37 38 39 40 41 42 43 44 45 46 47 48 49 50
000
ASUS43 KIND 171809
RWRIN

WEATHER ROUNDUP FOR INDIANA
NATIONAL WEATHER SERVICE INDIANAPOLIS IN
200 PM EDT TUE OCT 17 2017

NOTE: "FAIR" INDICATES FEW OR NO CLOUDS BELOW 12,000 FEET WITH NO
SIGNIFICANT WEATHER AND/OR OBSTRUCTIONS TO VISIBILITY.

* - STATION DOES NOT REPORT WEATHER SUCH AS PRECIPITATION OR FOG.

+ - STATION NOT QUALITY CONTROLLED BY THE NATIONAL WEATHER SERVICE.
    USE DATA WITH CAUTION...ESPECIALLY DEWPOINT AND RELATIVE
    HUMIDITY OBSERVATIONS.

INZ001>003-010>013-019-020-171900-
NORTHWEST INDIANA

CITY           SKY/WX    TMP DP  RH WIND       PRES   REMARKS
GARY /AIRPORT/ MOSUNNY   68  37  32 SW18G30   30.20F
KNOX *+        SUNNY     68  41  37 SW14      30.22F
LA PORTE +     SUNNY     66  43  43 SW17      30.21F
6HR MIN TEMP:  42; 6HR MAX TEMP:  66;

MICHIGAN CITY+ SUNNY     66  43  42 SW15G22   30.20F
MONTICELLO +   SUNNY     65  38  36 SW14G24   30.25F
6HR MIN TEMP:  43; 6HR MAX TEMP:  65;

RENSSELAER +   SUNNY     68  27  21 SW18G25   30.23F
VALPARAISO     SUNNY     69  42  37 SW15      30.21F
6HR MIN TEMP:  45; 6HR MAX TEMP:  69;


$$

LMZ046-743>745-171900-
SOUTHERN LAKE MICHIGAN

STATION/POSITION TIME  TEMP    WIND        PRES    WAVE
                       AIR SEA DIR/SP/G            HT
                 (UTC) (F)     (DEG/KT/KT) (MB)    (FT)
BURNS HARBOR     1740   65     230/ 19/ 23 1023.0F
MICHIGAN CITY    1740   64     210/ 20/ 23   N/A
5NW MICH CITY    1800   62 57  220/ 12/ 16   N/A     2

$$

INZ004-005-014>016-021>024-171900-
NORTH CENTRAL INDIANA

CITY           SKY/WX    TMP DP  RH WIND       PRES   REMARKS
ELKHART        SUNNY     66  41  39 SW14G23   30.21F
GOSHEN         SUNNY     66  40  38 SW18      30.22F
6HR MIN TEMP:  44; 6HR MAX TEMP:  66;

LOGANSPORT +   SUNNY     64  39  39 SW17G26   30.26F
PERU/GRISSOM   SUNNY     65  40  39 SW18      30.24F
6HR MIN TEMP:  44; 6HR MAX TEMP:  65;

SOUTH BEND     SUNNY     66  42  41 SW16G25   30.21F
6HR MIN TEMP:  45; 6HR MAX TEMP:  66;

WARSAW +       SUNNY     64  41  42 SW15      30.24F

$$

INZ006>009-017-018-025>027-171900-
NORTHEAST INDIANA

CITY           SKY/WX    TMP DP  RH WIND       PRES   REMARKS
AUBURN +       SUNNY     64  36  34 SW12G20   30.24F
FORT WAYNE     MOSUNNY   66  38  35 W16       30.25F
6HR MIN TEMP:  42; 6HR MAX TEMP:  66;

HUNTINGTON +   SUNNY     65  37  35 W13G20    30.25F
6HR MIN TEMP:  45; 6HR MAX TEMP:  65;

KENDALLVILLE + SUNNY     66  41  40 SW17      30.23F

$$

INZ028-029-035-036-043>045-051>053-171900-
WEST CENTRAL INDIANA

CITY           SKY/WX    TMP DP  RH WIND       PRES   REMARKS
GREENCASTLE +  SUNNY     63  39  42 SW6       30.29F
LAFAYETTE      NOT AVBL
TERRE HAUTE    SUNNY     65  39  38 SW13      30.30F
6HR MIN TEMP:  37; 6HR MAX TEMP:  66;


$$

INZ030>032-037>040-046>048-054>057-064-065-171900-
CENTRAL INDIANA

CITY           SKY/WX    TMP DP  RH WIND       PRES   REMARKS
CP ATTERBURY + SUNNY     64  37  36 S9        30.31F
COLUMBUS       MOSUNNY   63  32  31 SW9       30.32F
FRANKFORT +    SUNNY     67  41  38 SW12G21   30.28F
6HR MIN TEMP:  43; 6HR MAX TEMP:  68;

GREENWOOD *+   SUNNY     69  41  36 SW10      30.31F
6HR MIN TEMP:  43; 6HR MAX TEMP:  69;

INDIANAPOLIS   MOSUNNY   65  40  39 SW13      30.29F
6HR MIN TEMP:  42; 6HR MAX TEMP:  65;

-EAGLE CREEK   SUNNY     65  38  36 W8G18     30.28F
6HR MIN TEMP:  40; 6HR MAX TEMP:  65;

KOKOMO +       SUNNY     66  40  38 SW15G21   30.27F
6HR MIN TEMP:  47; 6HR MAX TEMP:  66;

MT COMFORT *+  SUNNY     64  45  48 SW10G17   30.29F
SHELBYVILLE    SUNNY     65  36  34 SW12      30.30F
6HR MIN TEMP:  38; 6HR MAX TEMP:  66;

ZIONSVILLE +   SUNNY     63  39  41 SW16      30.28F
6HR MIN TEMP:  40; 6HR MAX TEMP:  64;


$$

INZ033-034-041-042-049-050-058-059-171900-
EAST CENTRAL INDIANA

CITY           SKY/WX    TMP DP  RH WIND       PRES   REMARKS
MUNCIE         SUNNY     67  38  34 SW10      30.27F
6HR MIN TEMP:  46; 6HR MAX TEMP:  67;

RICHMOND +     FLURRIES  63  37  39 W12G17    30.31F

$$

INZ060-061-067>069-081>083-085>088-171900-
SOUTHWEST INDIANA

CITY           SKY/WX    TMP DP  RH WIND       PRES   REMARKS
EVANSVILLE     SUNNY     65  38  36 VRB5      30.33F
6HR MIN TEMP:  39; 6HR MAX TEMP:  65;

HUNTINGBURG +  SUNNY     64  40  41 VRB6      30.33F
6HR MIN TEMP:  38; 6HR MAX TEMP:  64;

WASHINGTON +   SUNNY     66  33  30 S5        30.32F
6HR MIN TEMP:  37; 6HR MAX TEMP:  66;


$$

INZ062-063-066-070>080-084-089>092-171900-
SOUTH CENTRAL AND SOUTHEAST INDIANA

CITY           SKY/WX    TMP DP  RH WIND       PRES   REMARKS
BLOOMINGTON    SUNNY     64  37  36 S8        30.31F
6HR MIN TEMP:  38; 6HR MAX TEMP:  65;

MADISON *+     SUNNY     64  36  34 S6        30.35F
NORTH VERNON + SUNNY     64  36  34 SW5       30.33F
SEYMOUR +      SUNNY     66  39  37 S8        30.32F

$$




USA.gov is the U.S. government's official web portal to all federal, state and local government web resources and services.